{"data":{"norad_id":65332,"intl_designator":"2025-189K","name":"STARLINK-33890","alt_names":[],"object_type":"PAYLOAD","status":"ACTIVE","operator":null,"country":"US","launch_date":"2025-08-27","launch_site_code":"AFETR","launch_vehicle":null,"mission":null,"orbit_class":"UNKNOWN","rcs_meters":null,"size_class":null,"mass_kg":null,"dimensions":null,"purposes":["comms"],"wikipedia_slug":null,"has_3d_model":false,"image_url":null,"decayed_at":null,"tle_current":{"epoch":"2026-05-25T04:26:59.657280Z","epoch_age_seconds":56341,"freshness":"FRESH","line1":"1 65332U 25189K   26145.18541270  .00019823  00000+0  64834-3 0  9990","line2":"2 65332  53.1591 211.0654 0001556  99.0108 261.1070 15.31725581 41626","mean_motion":15.31725581,"eccentricity":0.0001556,"inclination_deg":53.1591,"raan_deg":211.0654,"arg_perigee_deg":99.0108,"mean_anomaly_deg":261.107,"bstar":0.00064834,"rev_number":4162,"period_min":94.011617868253,"perigee_km":469.5980672618,"apogee_km":471.7294140523,"semimajor_km":6848.800740657,"source":"CELESTRAK","updated_at":"2026-05-25T13:38:20.759868Z"}}}